Location: Rounton
(54.4000°N, 1.3500°W)
Time: 03:42:24
(UTC+00:00)

S-56A Canister/Altair - Pass Details

Date: 08 December 2021
Orbit: 633 x 2499 km, 38.9° (Epoch: 17 January)

Event Time Altitude Azimuth Distance (km) Brightness Sun altitude
Rises 22:25:04 0° 222° (SW) 5,723 - -54.0°
Reaches altitude 10° 22:30:04 10° 210° (SSW) 4,434 - -54.4°
Maximum altitude 22:38:23 24° 165° (SSE) 2,902 - -55.1°
Drops below altitude 10° 22:44:45 10° 116° (ESE) 3,307 - -55.6°
Sets 22:47:50 0° 102° (ESE) 4,005 - -55.8°
